Find Starlink 1269

NORAD ID: 45197 Int'l Des: 2020-012 Owner: SPXS Country: US Constellation: starlink operational
LEOCIRCULAR

リアルタイム位置

3D地球を読み込み中...

Starlink 1269について

説明を読み込み中...

次回通過

Passes for default location (London). Set your location on the main map for personalized predictions.

高度履歴

Loading altitude history...

軌道要素

1 45197U 20012V 26125.35620457 .00018851 00000-0 60626-3 0 9995
2 45197 53.1561 136.1624 0002895 36.9787 323.1413 15.32298942343592
Epoch: May 5, 2026 • Age: 20 hours

現在のステータス

高度 474.4 km
速度 7.63 km/s
衛星直下点 -13.98°S, 36.13°E
打ち上げ日 Feb 17, 2020
運用期間 6.2 years
タイプ internet

技術仕様

分類 Payload
質量 260.00 kg
乾燥質量 248.00 kg
総質量 260.00 kg
長さ 0.20 m
直径 2.80 m
スパン 9.00 m
形状 Box + pan
製造者 SPXS
バスタイプ Starlink
フェーズステータス In Orbit
所有者/国 SPXS/US

Most Searched